STARLINK-4528 (53399 NORAD) Tracking and Keplerian Element Data

This shows tracking and keplerian element data for the satellite.

Feedback or suggestion? Click here.




ElementValue
Catalog53399
NameSTARLINK-4528
Epoch Orbit1618
Epoch Day325.18083819
Epoch Year2022
RAAN131.3722
Inclination53.2178
Eccentricity0.0001958
Argument of Perigee64.8862
Mean Anonmoly295.2333
Mean Motion15.08839038
Decay Rate6.37E-06
L11 53399U 22097M 22325.18083819 .00000637 00000+0 58108-4 0 9992
L22 53399 53.2178 131.3722 0001958 64.8862 295.2333 15.08839038 16181



Live tracking and technical data element details for STARLINK-4528 (NORAD 53399). STARLINK-4528 can be tracked NOW for your location showing map with azimuth and elevation plus other details from your city location.







IsCatalogInMostPopularTable: catalog: 53399, numindb: 9
Update: records affected: 1



GetName: 53399 STARLINK-4528

Hit Count: updated at: Thu, 08 Dec 2022 20:46:30 GMT